Location: Carrières
(48.9495°N, 2.0407°E)
Time: 19:28:08
(UTC+00:00)

NOAA 16 DEB - Visible Passes

Search period start: 27 February 2024 00:00
Search period end: 08 March 2024 00:00
Orbit: 825 x 839 km, 98.8° (Epoch: 26 February)

Date Brightness Start Highest point End Pass type
(mag) Time Alt. Az. Time Alt. Az. Time Alt. Az.
27 Feb ? 21:05:23 21° N 21:05:23 21° N 21:07:16 10° N visible
27 Feb ? 22:46:58 11° NW 22:46:58 11° NW 22:47:16 10° NW visible
28 Feb ? 20:47:43 21° NNE 20:47:43 21° NNE 20:49:45 10° N visible
28 Feb ? 22:29:19 14° NNW 22:29:19 14° NNW 22:30:12 10° NNW visible
29 Feb ? 20:30:03 20° NNE 20:30:03 20° NNE 20:32:10 10° N visible
29 Feb ? 22:11:38 18° NNW 22:11:38 18° NNW 22:13:00 10° NNW visible
01 Mar ? 20:12:22 18° NNE 20:12:22 18° NNE 20:14:28 10° N visible
01 Mar ? 21:53:58 21° NNW 21:53:58 21° NNW 21:55:44 10° NNW visible
02 Mar ? 19:54:41 15° NE 19:54:41 15° NE 19:56:37 10° NNE visible
02 Mar ? 21:36:16 24° NNW 21:36:16 24° NNW 21:38:22 10° NNW visible
03 Mar ? 19:36:58 12° NE 19:36:58 12° NE 19:38:26 10° NNE visible
03 Mar ? 21:18:34 26° N 21:18:34 26° N 21:20:56 10° N visible
03 Mar ? 23:00:09 11° NW 23:00:09 11° NW 23:00:32 10° NW visible
04 Mar ? 21:00:51 27° N 21:00:51 27° N 21:03:25 10° N visible
04 Mar ? 22:42:27 15° NW 22:42:27 15° NW 22:43:32 10° NNW visible
05 Mar ? 20:43:08 25° NNE 20:43:08 25° NNE 20:45:51 10° N visible
05 Mar ? 22:24:44 19° NW 22:24:44 19° NW 22:26:23 10° NNW visible
06 Mar ? 20:25:24 22° NNE 20:25:24 22° NNE 20:28:11 10° N visible
06 Mar ? 22:07:00 24° NNW 22:07:00 24° NNW 22:09:07 10° NNW visible
07 Mar ? 20:07:40 19° NE 20:07:40 19° NE 20:10:24 10° N visible
07 Mar ? 21:49:16 28° NNW 21:49:16 28° NNW 21:51:46 10° NNW visible
